Theta_e
342 343 344 343 344 344 344 345 345 343 342 343 343 343 343 342 334 332 335 330 337 337 339 341 341 343 344 345 344 344 343 340 339
341 343 343 343 343 343 343 344 344 344 344 343 343 341 339 336 331 330 330 331 337 336 334 335 339 340 341 342 342 341 341 339 337
341 341 342 343 343 342 342 342 343 343 342 342 341 340 337 330 329 330 331 339 337 335 334 333 333 337 338 338 337 338 337 336 335
342 342 341 342 342 341 341 341 340 340 339 338 338 337 336 327 330 332 331 340 337 334 333 332 332 331 331 333 333 334 334 333 332
345 342 342 342 341 341 340 340 339 337 335 335 335 333 333 326 328 330 332 339 336 334 332 331 330 329 329 330 330 330 330 330 330
339 338 340 342 341 340 340 340 339 337 335 335 334 332 325 324 327 329 339 339 337 335 332 331 330 328 327 328 328 328 329 329 328
338 335 338 342 341 340 340 340 340 335 328 326 331 324 322 322 326 330 340 339 338 337 334 331 329 328 327 327 327 326 326 326 326
334 332 334 333 333 333 336 335 334 329 327 325 324 323 321 320 321 331 339 339 338 338 339 335 332 329 327 327 326 325 324 324 324
332 331 331 330 331 329 330 330 330 330 329 324 322 320 319 319 319 328 335 339 337 337 339 339 338 334 331 329 327 326 324 323 323
327 329 330 330 329 328 328 327 326 325 325 325 323 320 319 318 319 322 330 335 338 337 337 338 339 339 337 334 331 329 327 326 324
323 323 323 321 321 322 322 323 323 323 323 321 320 319 319 320 321 321 324 332 335 337 336 336 337 338 339 338 336 333 331 329 327
325 326 326 325 324 324 324 325 326 326 327 325 325 325 323 322 323 324 323 326 330 334 336 337 337 338 339 338 338 336 334 332 330
327 327 328 329 326 325 325 325 325 325 325 325 326 326 325 325 325 326 326 325 326 329 335 337 338 337 337 337 337 337 336 335 333
332 330 330 331 330 329 328 328 327 326 327 330 330 329 328 326 328 326 326 327 328 327 329 331 332 333 334 335 336 335 335 334 333
333 333 332 332 333 332 332 331 331 330 330 331 329 329 327 327 326 326 327 326 324 326 327 326 324 327 330 332 332 332 331 331 332
335 334 334 335 333 333 333 331 331 329 330 328 326 324 325 326 325 325 324 323 322 320 319 320 317 319 324 325 325 326 327 328 328
336 335 335 335 334 333 333 332 329 329 329 325 324 316 316 318 318 319 320 319 319 318 316 316 315 314 314 314 317 319 322 324 326
326 327 330 331 331 330 330 330 328 325 327 328 323 314 309 312 316 317 317 317 315 315 314 313 314 311 308 308 310 314 317 321 324
317 316 317 318 319 321 323 325 323 325 321 322 321 319 320 314 309 314 315 315 317 314 313 311 312 309 306 307 311 312 314 317 319
313 313 313 314 315 315 315 315 315 315 315 316 318 318 319 315 312 307 311 314 314 312 310 308 307 306 305 304 307 310 313 316 317
Wind_Speed
17 16 16 15 14 14 13 12 11 10 8 8 7 8 9 7 7 6 8 6 11 12 12 11 12 13 13 13 13 13 14 13 13
16 15 15 13 13 13 13 13 11 9 8 8 7 7 7 6 6 6 6 5 10 11 12 11 10 10 11 12 12 12 12 12 11
15 15 13 12 12 12 12 12 10 8 6 6 6 7 10 5 6 5 5 7 9 10 10 10 10 9 9 9 9 8 8 8 9
14 12 13 11 11 10 10 9 9 7 5 5 6 6 7 4 4 6 4 7 8 8 8 8 9 9 8 8 7 7 7 7 7
12 9 10 10 10 9 8 7 7 4 2 1 4 7 7 3 2 4 3 8 6 6 6 6 7 7 7 7 8 7 7 7 7
8 7 9 8 8 8 7 6 5 4 3 4 6 6 3 3 3 3 8 8 6 5 4 4 4 5 5 6 7 7 7 7 7
6 6 8 8 7 7 7 7 6 5 2 3 6 2 4 3 3 3 9 8 6 5 4 3 2 3 4 4 5 5 5 5 5
4 3 3 3 6 3 4 3 3 4 3 4 4 4 3 2 1 4 9 8 6 5 6 5 4 3 2 3 3 3 3 3 4
4 3 4 4 3 5 4 3 4 5 6 6 6 4 3 2 1 4 9 8 7 7 7 7 7 5 4 4 3 3 2 1 1
4 4 4 4 3 4 4 4 4 5 6 4 5 5 4 5 3 3 9 9 8 8 8 8 9 9 9 8 7 6 6 5 4
4 4 4 4 4 4 4 4 3 3 2 3 3 5 5 5 5 3 5 11 11 9 9 9 9 10 11 11 11 11 10 8 7
5 3 2 4 3 4 2 2 2 2 2 3 4 4 5 5 5 4 4 5 10 11 12 10 11 11 13 13 12 13 13 12 10
4 3 3 4 3 3 3 2 2 2 3 3 5 4 4 5 6 4 4 4 4 9 12 12 11 11 11 12 14 15 11 13 13
5 4 4 4 3 3 3 3 3 2 3 4 3 3 3 4 4 5 5 5 4 4 6 8 7 7 8 11 12 14 12 9 11
6 4 4 4 3 3 3 4 3 3 2 3 3 4 4 4 5 6 4 4 2 2 5 3 2 3 6 9 9 11 12 12 11
5 4 3 1 2 2 1 0 1 1 1 2 3 3 5 6 5 4 3 2 5 6 5 3 3 6 18 17 15 14 14 14 13
5 3 3 3 2 3 3 2 1 1 1 2 2 3 4 3 3 1 3 5 4 4 5 7 7 6 6 10 15 14 14 14 14
6 5 3 2 1 1 1 1 2 2 2 3 3 2 3 2 2 2 2 4 3 4 6 8 8 8 6 7 9 15 14 13 14
6 5 4 3 3 3 1 1 1 2 3 2 2 2 2 3 3 2 0 1 3 5 5 5 7 8 6 9 13 14 13 12 12
5 5 4 4 2 2 2 2 1 1 1 2 2 3 3 4 4 3 3 3 4 5 5 5 6 7 6 5 8 14 13 12 10
Wind_Direction
110 108 106 106 104 100 95 94 95 93 86 73 61 39 17 24 79 71 68 58 65 63 62 59 63 58 70 74 78 76 75 68 61
115 117 117 116 110 104 98 93 93 88 78 76 55 30 23 120 95 90 77 63 66 64 61 61 63 67 64 64 69 72 71 63 55
123 124 124 123 116 108 105 101 98 88 71 57 36 19 35 75 100 96 90 76 70 66 65 64 64 63 63 62 60 58 57 53 53
127 130 130 130 123 118 111 108 101 94 69 29 5 3 13 67 138 116 115 95 80 73 69 65 65 63 61 60 57 55 54 55 56
129 131 133 136 133 130 125 122 119 119 118 323 319 331 350 1 104 131 144 120 100 90 79 69 68 67 66 64 59 57 58 58 60
138 141 140 141 145 146 148 148 153 175 225 256 276 293 302 312 167 172 154 140 134 120 105 92 84 81 73 66 60 57 59 60 65
147 147 158 161 165 174 177 184 196 205 220 264 276 272 281 302 177 186 170 163 166 171 164 154 135 114 99 86 76 68 64 63 68
150 152 173 184 196 206 211 220 228 219 215 241 235 257 258 254 116 199 187 187 188 207 211 211 211 184 164 136 111 91 72 73 68
165 176 185 197 199 209 214 217 224 239 239 207 215 226 226 259 193 198 202 202 211 219 236 237 228 229 223 206 185 168 161 127 105
170 196 194 203 204 204 216 222 222 221 234 241 234 244 240 246 249 200 213 207 215 227 240 250 254 238 230 228 217 207 203 205 199
184 179 186 198 190 199 193 202 239 241 229 255 241 243 246 244 237 212 210 210 213 222 238 246 256 264 265 246 229 221 220 224 217
166 165 208 205 201 210 220 262 194 245 275 267 262 258 255 255 246 239 220 223 224 214 231 238 247 252 263 274 264 241 231 230 228
163 181 205 220 210 194 190 211 268 262 255 260 260 259 247 244 264 267 244 222 222 219 228 227 238 253 270 291 287 281 254 243 232
171 193 225 223 196 195 204 224 197 229 257 253 265 297 279 281 284 269 263 247 234 232 230 221 236 278 278 292 316 328 328 294 258
175 190 211 212 211 219 207 224 242 233 260 293 293 294 293 278 268 265 268 263 357 126 104 116 44 315 358 5 354 357 356 352 337
171 185 209 44 189 166 164 200 265 260 148 307 297 289 265 267 263 270 249 96 106 104 96 93 80 61 66 56 44 28 12 0 352
79 107 94 66 34 23 25 30 354 280 228 245 261 285 327 315 340 19 115 122 119 121 116 78 74 73 67 56 43 25 10 356 345
77 63 80 84 55 300 253 240 224 251 293 280 230 288 239 319 316 39 70 139 136 95 93 102 97 91 78 51 37 26 11 357 346
75 71 56 53 32 1 327 24 305 267 255 354 273 217 247 261 303 335 3 15 58 106 102 92 88 90 79 62 44 28 7 352 342
74 66 57 55 46 34 29 7 309 253 236 231 289 256 243 238 228 236 289 33 56 52 66 63 75 77 83 73 40 21 1 347 335